sat.trackr.live / text

‹ back to catalog

ONEWEB-0357

NORAD 49219 · 2021-083AK

PAYLOAD ACTIVE UNKNOWN

§ Identity

Operator
Country
UK
Launch date
2021-09-14
Launch site
TYMSC
Launch vehicle
Mass (kg)
RCS (m²)

Purposes: comms

External: N2YO · Heavens-Above · Gunter

§ Orbital elements

Epoch: 2026-09-20T04:55:20.049024Z

Period
109.03 min
Inclination
87.9145°
Eccentricity
0.0001733
Mean motion
13.20769955 rev/d
Perigee alt
1,180.5 km
Apogee alt
1,183.1 km
Semi-major
7,559.9 km
B*
-1.0544e-4
RAAN
255.4769°
Arg perigee
87.3279°
Mean anomaly
272.8052°
Rev number
24,935

§ Raw data

ONEWEB-03571 49219U 21083AK  26263.20509316 -.00000030  00000+0 -10544-3 0  99952 49219  87.9145 255.4769 0001733  87.3279 272.8052 13.20769955249355

JSON: /api/v1/satellites/49219 · /tle

For live sub-satellite position, see the globe view (requires WebGL).

§ Visibility from observer

Set your observer location to see the next 7 days of passes ≥ 10°. The values pass through the URL so the page stays shareable.

No JS? Fill the form by hand. The geolocation button needs JavaScript.